Triumphant — WDG8773 — position and weather

sailwx.info

Track history (hours):
 
Tides and Currents Weather Stations Pressure Air Temp Water Temp Dewpoint Dewpoint Depression Visibility Wind Speed Wind Dir Waves Ship Positions

Triumphant

Owner: Harbor Breeze Corporation, Long Beach, CA. More information available from US FCC via Universal Licensing System and Coast Guard Vessel Documentation Center.

Last reported at 2018-Jun-22 18:35 UTC. Time now 2018-Jun-22 20:32 UTC.
Position N 33°46' W 118°12'.

Length 26 m.

Type: Passenger vessel. MMSI: 367580930.

Date/timePositionNaut miles runAvg speedWind from/ knotsBaromVisibWave heightAir tempDewpointWater temp
2018-Jun-22 18:35N 33°46' W 118°12'0 0.1
2018-Jun-22 18:30N 33°46' W 118°12'3 5.8
2018-Jun-22 18:00N 33°43' W 118°10'2 3.1
2018-Jun-22 17:30N 33°42' W 118°09'4 7.6
2018-Jun-22 17:01N 33°45' W 118°11'1 1.4
2018-Jun-22 16:30N 33°46' W 118°12'0 0.0
2018-Jun-22 16:01N 33°46' W 118°12'0 0.0
2018-Jun-22 01:54N 33°46' W 118°12'0 0.0
2018-Jun-22 01:30N 33°46' W 118°12'0 0.0
2018-Jun-22 01:00N 33°46' W 118°12'4 7.8
2018-Jun-22 00:30N 33°42' W 118°10'916.8
2018-Jun-21 23:59N 33°34' W 118°06'2 5.1
2018-Jun-21 23:30N 33°34' W 118°09'2 4.5
2018-Jun-21 23:00N 33°36' W 118°08'917.1
2018-Jun-21 22:30N 33°44' W 118°11'2 3.4
2018-Jun-21 21:55N 33°46' W 118°12'3 6.5
2018-Jun-21 21:30N 33°43' W 118°11'1121.1
2018-Jun-21 21:01N 33°33' W 118°07'0 1.0
2018-Jun-21 20:30N 33°33' W 118°06'2 4.8
2018-Jun-21 20:00N 33°36' W 118°07'918.2
2018-Jun-21 19:30N 33°44' W 118°11'2 3.1
2018-Jun-21 19:00N 33°46' W 118°12'0 0.0
2018-Jun-21 18:30N 33°46' W 118°12'0 0.0
2018-Jun-21 18:00N 33°46' W 118°12'0 0.0
2018-Jun-21 17:29N 33°46' W 118°12'0 0.0
2018-Jun-20 03:23N 33°46' W 118°12'0 0.0
2018-Jun-20 03:00N 33°46' W 118°12'0 0.0
2018-Jun-20 02:30N 33°46' W 118°12'2 4.4
2018-Jun-20 02:00N 33°44' W 118°12'4 7.3
2018-Jun-20 01:30N 33°44' W 118°17'4 7.1
2018-Jun-20 01:01N 33°40' W 118°17'4 7.6
2018-Jun-20 00:30N 33°37' W 118°19'5 9.6
2018-Jun-20 00:00N 33°42' W 118°22'510.8
2018-Jun-19 23:31N 33°43' W 118°15'2 3.4
2018-Jun-19 23:00N 33°44' W 118°17'0 0.0
2018-Jun-19 22:30N 33°44' W 118°17'4 7.7
2018-Jun-19 22:00N 33°41' W 118°14'612.7
2018-Jun-19 21:30N 33°34' W 118°15'4 7.2
2018-Jun-19 21:00N 33°36' W 118°19'815.6
2018-Jun-19 20:30N 33°42' W 118°15'2 4.2
2018-Jun-19 20:01N 33°44' W 118°17'0 0.0
2018-Jun-19 19:30N 33°44' W 118°17'0 0.0
2018-Jun-19 19:01N 33°44' W 118°17'0 0.7
2018-Jun-19 18:30N 33°44' W 118°17'1 2.5
2018-Jun-19 18:01N 33°45' W 118°16'2 4.1
2018-Jun-19 17:30N 33°43' W 118°16'1 2.7
2018-Jun-19 17:00N 33°44' W 118°17'0 0.0
2018-Jun-19 16:30N 33°44' W 118°17'5 9.2
2018-Jun-19 16:00N 33°44' W 118°11'2 3.8
2018-Jun-19 15:30N 33°46' W 118°12'0 0.0
2018-Jun-19 02:33N 33°46' W 118°12'0 0.0
2018-Jun-19 02:30N 33°46' W 118°12'0 0.0
2018-Jun-19 02:00N 33°46' W 118°12'0 0.0
2018-Jun-19 01:30N 33°46' W 118°12'0 0.0
2018-Jun-19 01:00N 33°46' W 118°12'4 7.1
2018-Jun-19 00:30N 33°42' W 118°11'917.2
2018-Jun-19 00:00N 33°35' W 118°17'1 1.1
2018-Jun-18 23:30N 33°36' W 118°18'4 7.3
2018-Jun-18 23:00N 33°39' W 118°17'714.2
2018-Jun-18 22:30N 33°44' W 118°11'2 3.6
2018-Jun-18 22:01N 33°46' W 118°12'3 6.7
2018-Jun-18 21:31N 33°42' W 118°11'815.8
2018-Jun-18 21:00N 33°36' W 118°16'2 4.4
2018-Jun-18 20:30N 33°35' W 118°14'611.8
2018-Jun-18 20:00N 33°36' W 118°07'816.3
2018-Jun-18 19:30N 33°44' W 118°10'2 3.9
2018-Jun-18 19:00N 33°46' W 118°12'0 0.0
2018-Jun-18 18:30N 33°46' W 118°12'0 0.0
2018-Jun-18 18:00N 33°46' W 118°12'0 0.0
2018-Jun-18 17:30N 33°46' W 118°12'0 0.0
2018-Jun-18 05:48N 33°46' W 118°12'0 0.0
2018-Jun-18 05:30N 33°46' W 118°12'0 0.0
2018-Jun-18 05:00N 33°46' W 118°12'0 0.0
2018-Jun-18 04:30N 33°46' W 118°12'2 4.9
2018-Jun-18 04:00N 33°43' W 118°13'3 6.7
2018-Jun-18 03:30N 33°44' W 118°17'510.2
2018-Jun-18 03:01N 33°39' W 118°15'5 8.8
2018-Jun-18 02:29N 33°35' W 118°14'3 7.0
2018-Jun-18 02:00N 33°38' W 118°14'612.6
2018-Jun-18 01:30N 33°44' W 118°17'0 0.0
2018-Jun-18 01:00N 33°44' W 118°17'714.5
2018-Jun-18 00:30N 33°37' W 118°15'2 4.3
2018-Jun-17 23:59N 33°35' W 118°14'715.1
2018-Jun-17 23:31N 33°42' W 118°15'3 5.3
2018-Jun-17 23:00N 33°44' W 118°17'5 9.3
2018-Jun-17 22:31N 33°40' W 118°15'510.5
2018-Jun-17 22:01N 33°34' W 118°14'2 3.4
2018-Jun-17 21:31N 33°36' W 118°13'816.9
2018-Jun-17 21:01N 33°44' W 118°16'0 0.5
2018-Jun-17 20:30N 33°44' W 118°17'0 0.0
2018-Jun-17 20:00N 33°44' W 118°17'0 0.5
2018-Jun-17 19:30N 33°44' W 118°17'0 0.0
2018-Jun-17 19:00N 33°44' W 118°17'4 8.9
2018-Jun-17 18:31N 33°40' W 118°19'8 5.3
2018-Jun-17 16:55N 33°33' W 118°25'921.7
2018-Jun-17 16:30N 33°40' W 118°18'5 9.3
2018-Jun-17 16:00N 33°44' W 118°17'2 3.2
2018-Jun-17 15:30N 33°43' W 118°16'4 8.6
2018-Jun-17 15:00N 33°46' W 118°12'0 0.0
2018-Jun-17 04:03N 33°46' W 118°12'0 0.0
2018-Jun-17 04:00N 33°46' W 118°12'0 0.0
2018-Jun-17 03:30N 33°46' W 118°12'1 1.1
2018-Jun-17 03:00N 33°45' W 118°11'5 9.3
2018-Jun-17 02:31N 33°44' W 118°17'3 5.3
2018-Jun-17 02:00N 33°42' W 118°15'510.7
2018-Jun-17 01:30N 33°39' W 118°21'3 5.8
2018-Jun-17 01:00N 33°42' W 118°19'3 6.7
2018-Jun-17 00:30N 33°44' W 118°17'1 1.3
2018-Jun-17 00:00N 33°43' W 118°16'4 8.2
2018-Jun-16 23:30N 33°42' W 118°21'1 2.4
2018-Jun-16 22:57N 33°42' W 118°22'613.9
2018-Jun-16 22:30N 33°43' W 118°15'2 3.6
2018-Jun-16 22:00N 33°44' W 118°17'2 4.1
2018-Jun-16 21:30N 33°42' W 118°16'4 7.5
2018-Jun-16 21:00N 33°40' W 118°19'2 4.4
2018-Jun-16 20:30N 33°38' W 118°17'5 9.8
2018-Jun-16 20:00N 33°43' W 118°16'1 2.3
2018-Jun-16 19:30N 33°44' W 118°16'4 8.6
2018-Jun-16 19:00N 33°46' W 118°12'0 0.7
2018-Jun-16 18:30N 33°45' W 118°12'2 3.3
2018-Jun-16 18:00N 33°46' W 118°13'2 3.6
2018-Jun-16 17:30N 33°45' W 118°12'1 2.5
2018-Jun-16 17:00N 33°46' W 118°12'0 0.0
2018-Jun-16 16:30N 33°46' W 118°12'0 0.5
2018-Jun-16 16:00N 33°46' W 118°12'0 0.0
2018-Jun-16 05:23N 33°46' W 118°12'0 0.0
2018-Jun-16 05:00N 33°46' W 118°12'0 0.0
2018-Jun-16 04:29N 33°46' W 118°12'0 0.0
2018-Jun-16 04:00N 33°46' W 118°12'2 3.6
2018-Jun-16 03:30N 33°45' W 118°10'1 2.2
2018-Jun-16 03:00N 33°44' W 118°10'2 4.8
2018-Jun-16 02:30N 33°45' W 118°07'0 0.0
2018-Jun-16 02:00N 33°45' W 118°07'2 4.5
2018-Jun-16 01:30N 33°45' W 118°10'2 3.8
2018-Jun-16 01:00N 33°46' W 118°12'0 0.0
2018-Jun-16 00:30N 33°46' W 118°12'0 0.0
2018-Jun-16 00:00N 33°46' W 118°12'0 0.0
2018-Jun-15 23:30N 33°46' W 118°12'0 0.0
2018-Jun-15 23:00N 33°46' W 118°12'2 4.0
2018-Jun-15 22:30N 33°44' W 118°12'3 6.5
2018-Jun-15 22:00N 33°45' W 118°16'1 2.8
2018-Jun-15 21:30N 33°44' W 118°17'1 2.0
2018-Jun-15 21:00N 33°45' W 118°16'2 3.8
2018-Jun-15 20:30N 33°43' W 118°16'1 2.5
2018-Jun-15 20:00N 33°44' W 118°17'0 0.0
2018-Jun-15 19:30N 33°44' W 118°17'4 8.9
2018-Jun-15 19:00N 33°44' W 118°11'2 4.0
2018-Jun-15 18:30N 33°46' W 118°12'0 0.0
2018-Jun-15 04:06N 33°46' W 118°12'0 0.0
2018-Jun-15 04:00N 33°46' W 118°12'0 0.5
2018-Jun-15 03:29N 33°46' W 118°12'1 2.8
2018-Jun-15 03:00N 33°46' W 118°13'2 3.7
2018-Jun-15 02:31N 33°45' W 118°12'1 2.3
2018-Jun-15 02:01N 33°46' W 118°12'0 0.0
2018-Jun-15 01:31N 33°46' W 118°12'0 0.0
2018-Jun-15 01:01N 33°46' W 118°12'0 0.5
2018-Jun-15 00:31N 33°46' W 118°12'0 0.0
2018-Jun-15 00:01N 33°46' W 118°12'0 0.0
2018-Jun-14 23:31N 33°46' W 118°12'4 8.7
2018-Jun-14 23:00N 33°43' W 118°16'1 1.9
2018-Jun-14 22:30N 33°44' W 118°17'2 3.1
2018-Jun-14 22:00N 33°46' W 118°16'2 4.6
2018-Jun-14 21:30N 33°43' W 118°16'1 2.8
2018-Jun-14 21:00N 33°44' W 118°17'0 0.2
2018-Jun-14 20:30N 33°44' W 118°17'5 9.2
2018-Jun-14 20:00N 33°45' W 118°11'1 1.3
2018-Jun-14 19:30N 33°46' W 118°12'0 0.0
2018-Jun-14 03:29N 33°46' W 118°12'0 0.0
2018-Jun-14 03:00N 33°46' W 118°12'2 3.3
2018-Jun-14 02:31N 33°44' W 118°11'5 9.9
2018-Jun-14 02:00N 33°44' W 118°17'2 4.6
2018-Jun-14 01:30N 33°43' W 118°15'816.9
2018-Jun-14 01:00N 33°37' W 118°08'2 3.5
2018-Jun-14 00:31N 33°35' W 118°06'1223.2
2018-Jun-14 00:00N 33°44' W 118°16'0 0.6
2018-Jun-13 23:30N 33°44' W 118°16'816.7
2018-Jun-13 23:00N 33°36' W 118°13'2 3.2
2018-Jun-13 22:30N 33°34' W 118°13'612.2
2018-Jun-13 22:00N 33°40' W 118°17'4 9.1
2018-Jun-13 21:30N 33°44' W 118°17'0 0.6
2018-Jun-13 21:00N 33°44' W 118°17'2 3.2
2018-Jun-13 20:30N 33°46' W 118°16'2 3.7
2018-Jun-13 20:01N 33°44' W 118°16'1 2.2
2018-Jun-13 19:30N 33°44' W 118°17'0 0.0
2018-Jun-13 19:00N 33°44' W 118°17'0 0.0
2018-Jun-13 18:30N 33°44' W 118°17'0 0.0
2018-Jun-13 18:00N 33°44' W 118°17'0 0.2
2018-Jun-13 17:30N 33°44' W 118°17'2 3.1
2018-Jun-13 17:00N 33°43' W 118°16'2 3.2
2018-Jun-13 16:30N 33°44' W 118°17'4 8.3
2018-Jun-13 16:01N 33°44' W 118°12'2 0.1
2018-Jun-13 00:43N 33°46' W 118°12'0 2.0
2018-Jun-13 00:30N 33°45' W 118°11'1122.0
2018-Jun-13 00:00N 33°35' W 118°06'1 2.1
2018-Jun-12 23:30N 33°34' W 118°06'3 6.2
2018-Jun-12 22:59N 33°37' W 118°07'715.0
2018-Jun-12 22:31N 33°44' W 118°11'2 4.2
2018-Jun-12 22:00N 33°46' W 118°12'3 6.0
2018-Jun-12 21:30N 33°43' W 118°11'916.5
2018-Jun-12 20:59N 33°35' W 118°06'4 8.8
2018-Jun-12 20:30N 33°32' W 118°10'3 6.7
2018-Jun-12 20:00N 33°35' W 118°13'917.6
2018-Jun-12 19:31N 33°44' W 118°11'2 4.3
2018-Jun-12 19:00N 33°46' W 118°12'  
Track history (hours):
 
Tides and Currents Weather Stations Pressure Air Temp Water Temp Dewpoint Dewpoint Depression Visibility Wind Speed Wind Dir Waves Ship Positions

Triumphant

Owner: Harbor Breeze Corporation, Long Beach, CA. More information available from US FCC via Universal Licensing System and Coast Guard Vessel Documentation Center.

Last reported at 2018-Jun-22 18:35 UTC. Time now 2018-Jun-22 20:32 UTC.
Position N 33°46' W 118°12'.

Length 26 m.

Type: Passenger vessel. MMSI: 367580930.

Date/timePositionNaut miles runAvg speedWind from/ knotsBaromVisibWave heightAir tempDewpointWater temp
2018-Jun-22 18:35N 33°46' W 118°12'0 0.1
2018-Jun-22 18:30N 33°46' W 118°12'3 5.8
2018-Jun-22 18:00N 33°43' W 118°10'2 3.1
2018-Jun-22 17:30N 33°42' W 118°09'4 7.6
2018-Jun-22 17:01N 33°45' W 118°11'1 1.4
2018-Jun-22 16:30N 33°46' W 118°12'0 0.0
2018-Jun-22 16:01N 33°46' W 118°12'0 0.0
2018-Jun-22 01:54N 33°46' W 118°12'0 0.0
2018-Jun-22 01:30N 33°46' W 118°12'0 0.0
2018-Jun-22 01:00N 33°46' W 118°12'4 7.8
2018-Jun-22 00:30N 33°42' W 118°10'916.8
2018-Jun-21 23:59N 33°34' W 118°06'2 5.1
2018-Jun-21 23:30N 33°34' W 118°09'2 4.5
2018-Jun-21 23:00N 33°36' W 118°08'917.1
2018-Jun-21 22:30N 33°44' W 118°11'2 3.4
2018-Jun-21 21:55N 33°46' W 118°12'3 6.5
2018-Jun-21 21:30N 33°43' W 118°11'1121.1
2018-Jun-21 21:01N 33°33' W 118°07'0 1.0
2018-Jun-21 20:30N 33°33' W 118°06'2 4.8
2018-Jun-21 20:00N 33°36' W 118°07'918.2
2018-Jun-21 19:30N 33°44' W 118°11'2 3.1
2018-Jun-21 19:00N 33°46' W 118°12'0 0.0
2018-Jun-21 18:30N 33°46' W 118°12'0 0.0
2018-Jun-21 18:00N 33°46' W 118°12'0 0.0
2018-Jun-21 17:29N 33°46' W 118°12'0 0.0
2018-Jun-20 03:23N 33°46' W 118°12'0 0.0
2018-Jun-20 03:00N 33°46' W 118°12'0 0.0
2018-Jun-20 02:30N 33°46' W 118°12'2 4.4
2018-Jun-20 02:00N 33°44' W 118°12'4 7.3
2018-Jun-20 01:30N 33°44' W 118°17'4 7.1
2018-Jun-20 01:01N 33°40' W 118°17'4 7.6
2018-Jun-20 00:30N 33°37' W 118°19'5 9.6
2018-Jun-20 00:00N 33°42' W 118°22'510.8
2018-Jun-19 23:31N 33°43' W 118°15'2 3.4
2018-Jun-19 23:00N 33°44' W 118°17'0 0.0
2018-Jun-19 22:30N 33°44' W 118°17'4 7.7
2018-Jun-19 22:00N 33°41' W 118°14'612.7
2018-Jun-19 21:30N 33°34' W 118°15'4 7.2
2018-Jun-19 21:00N 33°36' W 118°19'815.6
2018-Jun-19 20:30N 33°42' W 118°15'2 4.2
2018-Jun-19 20:01N 33°44' W 118°17'0 0.0
2018-Jun-19 19:30N 33°44' W 118°17'0 0.0
2018-Jun-19 19:01N 33°44' W 118°17'0 0.7
2018-Jun-19 18:30N 33°44' W 118°17'1 2.5
2018-Jun-19 18:01N 33°45' W 118°16'2 4.1
2018-Jun-19 17:30N 33°43' W 118°16'1 2.7
2018-Jun-19 17:00N 33°44' W 118°17'0 0.0
2018-Jun-19 16:30N 33°44' W 118°17'5 9.2
2018-Jun-19 16:00N 33°44' W 118°11'2 3.8
2018-Jun-19 15:30N 33°46' W 118°12'0 0.0
2018-Jun-19 02:33N 33°46' W 118°12'0 0.0
2018-Jun-19 02:30N 33°46' W 118°12'0 0.0
2018-Jun-19 02:00N 33°46' W 118°12'0 0.0
2018-Jun-19 01:30N 33°46' W 118°12'0 0.0
2018-Jun-19 01:00N 33°46' W 118°12'4 7.1
2018-Jun-19 00:30N 33°42' W 118°11'917.2
2018-Jun-19 00:00N 33°35' W 118°17'1 1.1
2018-Jun-18 23:30N 33°36' W 118°18'4 7.3
2018-Jun-18 23:00N 33°39' W 118°17'714.2
2018-Jun-18 22:30N 33°44' W 118°11'2 3.6
2018-Jun-18 22:01N 33°46' W 118°12'3 6.7
2018-Jun-18 21:31N 33°42' W 118°11'815.8
2018-Jun-18 21:00N 33°36' W 118°16'2 4.4
2018-Jun-18 20:30N 33°35' W 118°14'611.8
2018-Jun-18 20:00N 33°36' W 118°07'816.3
2018-Jun-18 19:30N 33°44' W 118°10'2 3.9
2018-Jun-18 19:00N 33°46' W 118°12'0 0.0
2018-Jun-18 18:30N 33°46' W 118°12'0 0.0
2018-Jun-18 18:00N 33°46' W 118°12'0 0.0
2018-Jun-18 17:30N 33°46' W 118°12'0 0.0
2018-Jun-18 05:48N 33°46' W 118°12'0 0.0
2018-Jun-18 05:30N 33°46' W 118°12'0 0.0
2018-Jun-18 05:00N 33°46' W 118°12'0 0.0
2018-Jun-18 04:30N 33°46' W 118°12'2 4.9
2018-Jun-18 04:00N 33°43' W 118°13'3 6.7
2018-Jun-18 03:30N 33°44' W 118°17'510.2
2018-Jun-18 03:01N 33°39' W 118°15'5 8.8
2018-Jun-18 02:29N 33°35' W 118°14'3 7.0
2018-Jun-18 02:00N 33°38' W 118°14'612.6
2018-Jun-18 01:30N 33°44' W 118°17'0 0.0
2018-Jun-18 01:00N 33°44' W 118°17'714.5
2018-Jun-18 00:30N 33°37' W 118°15'2 4.3
2018-Jun-17 23:59N 33°35' W 118°14'715.1
2018-Jun-17 23:31N 33°42' W 118°15'3 5.3
2018-Jun-17 23:00N 33°44' W 118°17'5 9.3
2018-Jun-17 22:31N 33°40' W 118°15'510.5
2018-Jun-17 22:01N 33°34' W 118°14'2 3.4
2018-Jun-17 21:31N 33°36' W 118°13'816.9
2018-Jun-17 21:01N 33°44' W 118°16'0 0.5
2018-Jun-17 20:30N 33°44' W 118°17'0 0.0
2018-Jun-17 20:00N 33°44' W 118°17'0 0.5
2018-Jun-17 19:30N 33°44' W 118°17'0 0.0
2018-Jun-17 19:00N 33°44' W 118°17'4 8.9
2018-Jun-17 18:31N 33°40' W 118°19'8 5.3
2018-Jun-17 16:55N 33°33' W 118°25'921.7
2018-Jun-17 16:30N 33°40' W 118°18'5 9.3
2018-Jun-17 16:00N 33°44' W 118°17'2 3.2
2018-Jun-17 15:30N 33°43' W 118°16'4 8.6
2018-Jun-17 15:00N 33°46' W 118°12'0 0.0
2018-Jun-17 04:03N 33°46' W 118°12'0 0.0
2018-Jun-17 04:00N 33°46' W 118°12'0 0.0
2018-Jun-17 03:30N 33°46' W 118°12'1 1.1
2018-Jun-17 03:00N 33°45' W 118°11'5 9.3
2018-Jun-17 02:31N 33°44' W 118°17'3 5.3
2018-Jun-17 02:00N 33°42' W 118°15'510.7
2018-Jun-17 01:30N 33°39' W 118°21'3 5.8
2018-Jun-17 01:00N 33°42' W 118°19'3 6.7
2018-Jun-17 00:30N 33°44' W 118°17'1 1.3
2018-Jun-17 00:00N 33°43' W 118°16'4 8.2
2018-Jun-16 23:30N 33°42' W 118°21'1 2.4
2018-Jun-16 22:57N 33°42' W 118°22'613.9
2018-Jun-16 22:30N 33°43' W 118°15'2 3.6
2018-Jun-16 22:00N 33°44' W 118°17'2 4.1
2018-Jun-16 21:30N 33°42' W 118°16'4 7.5
2018-Jun-16 21:00N 33°40' W 118°19'2 4.4
2018-Jun-16 20:30N 33°38' W 118°17'5 9.8
2018-Jun-16 20:00N 33°43' W 118°16'1 2.3
2018-Jun-16 19:30N 33°44' W 118°16'4 8.6
2018-Jun-16 19:00N 33°46' W 118°12'0 0.7
2018-Jun-16 18:30N 33°45' W 118°12'2 3.3
2018-Jun-16 18:00N 33°46' W 118°13'2 3.6
2018-Jun-16 17:30N 33°45' W 118°12'1 2.5
2018-Jun-16 17:00N 33°46' W 118°12'0 0.0
2018-Jun-16 16:30N 33°46' W 118°12'0 0.5
2018-Jun-16 16:00N 33°46' W 118°12'0 0.0
2018-Jun-16 05:23N 33°46' W 118°12'0 0.0
2018-Jun-16 05:00N 33°46' W 118°12'0 0.0
2018-Jun-16 04:29N 33°46' W 118°12'0 0.0
2018-Jun-16 04:00N 33°46' W 118°12'2 3.6
2018-Jun-16 03:30N 33°45' W 118°10'1 2.2
2018-Jun-16 03:00N 33°44' W 118°10'2 4.8
2018-Jun-16 02:30N 33°45' W 118°07'0 0.0
2018-Jun-16 02:00N 33°45' W 118°07'2 4.5
2018-Jun-16 01:30N 33°45' W 118°10'2 3.8
2018-Jun-16 01:00N 33°46' W 118°12'0 0.0
2018-Jun-16 00:30N 33°46' W 118°12'0 0.0
2018-Jun-16 00:00N 33°46' W 118°12'0 0.0
2018-Jun-15 23:30N 33°46' W 118°12'0 0.0
2018-Jun-15 23:00N 33°46' W 118°12'2 4.0
2018-Jun-15 22:30N 33°44' W 118°12'3 6.5
2018-Jun-15 22:00N 33°45' W 118°16'1 2.8
2018-Jun-15 21:30N 33°44' W 118°17'1 2.0
2018-Jun-15 21:00N 33°45' W 118°16'2 3.8
2018-Jun-15 20:30N 33°43' W 118°16'1 2.5
2018-Jun-15 20:00N 33°44' W 118°17'0 0.0
2018-Jun-15 19:30N 33°44' W 118°17'4 8.9
2018-Jun-15 19:00N 33°44' W 118°11'2 4.0
2018-Jun-15 18:30N 33°46' W 118°12'0 0.0
2018-Jun-15 04:06N 33°46' W 118°12'0 0.0
2018-Jun-15 04:00N 33°46' W 118°12'0 0.5
2018-Jun-15 03:29N 33°46' W 118°12'1 2.8
2018-Jun-15 03:00N 33°46' W 118°13'2 3.7
2018-Jun-15 02:31N 33°45' W 118°12'1 2.3
2018-Jun-15 02:01N 33°46' W 118°12'0 0.0
2018-Jun-15 01:31N 33°46' W 118°12'0 0.0
2018-Jun-15 01:01N 33°46' W 118°12'0 0.5
2018-Jun-15 00:31N 33°46' W 118°12'0 0.0
2018-Jun-15 00:01N 33°46' W 118°12'0 0.0
2018-Jun-14 23:31N 33°46' W 118°12'4 8.7
2018-Jun-14 23:00N 33°43' W 118°16'1 1.9
2018-Jun-14 22:30N 33°44' W 118°17'2 3.1
2018-Jun-14 22:00N 33°46' W 118°16'2 4.6
2018-Jun-14 21:30N 33°43' W 118°16'1 2.8
2018-Jun-14 21:00N 33°44' W 118°17'0 0.2
2018-Jun-14 20:30N 33°44' W 118°17'5 9.2
2018-Jun-14 20:00N 33°45' W 118°11'1 1.3
2018-Jun-14 19:30N 33°46' W 118°12'0 0.0
2018-Jun-14 03:29N 33°46' W 118°12'0 0.0
2018-Jun-14 03:00N 33°46' W 118°12'2 3.3
2018-Jun-14 02:31N 33°44' W 118°11'5 9.9
2018-Jun-14 02:00N 33°44' W 118°17'2 4.6
2018-Jun-14 01:30N 33°43' W 118°15'816.9
2018-Jun-14 01:00N 33°37' W 118°08'2 3.5
2018-Jun-14 00:31N 33°35' W 118°06'1223.2
2018-Jun-14 00:00N 33°44' W 118°16'0 0.6
2018-Jun-13 23:30N 33°44' W 118°16'816.7
2018-Jun-13 23:00N 33°36' W 118°13'2 3.2
2018-Jun-13 22:30N 33°34' W 118°13'612.2
2018-Jun-13 22:00N 33°40' W 118°17'4 9.1
2018-Jun-13 21:30N 33°44' W 118°17'0 0.6
2018-Jun-13 21:00N 33°44' W 118°17'2 3.2
2018-Jun-13 20:30N 33°46' W 118°16'2 3.7
2018-Jun-13 20:01N 33°44' W 118°16'1 2.2
2018-Jun-13 19:30N 33°44' W 118°17'0 0.0
2018-Jun-13 19:00N 33°44' W 118°17'0 0.0
2018-Jun-13 18:30N 33°44' W 118°17'0 0.0
2018-Jun-13 18:00N 33°44' W 118°17'0 0.2
2018-Jun-13 17:30N 33°44' W 118°17'2 3.1
2018-Jun-13 17:00N 33°43' W 118°16'2 3.2
2018-Jun-13 16:30N 33°44' W 118°17'4 8.3
2018-Jun-13 16:01N 33°44' W 118°12'2 0.1
2018-Jun-13 00:43N 33°46' W 118°12'0 2.0
2018-Jun-13 00:30N 33°45' W 118°11'1122.0
2018-Jun-13 00:00N 33°35' W 118°06'1 2.1
2018-Jun-12 23:30N 33°34' W 118°06'3 6.2
2018-Jun-12 22:59N 33°37' W 118°07'715.0
2018-Jun-12 22:31N 33°44' W 118°11'2 4.2
2018-Jun-12 22:00N 33°46' W 118°12'3 6.0
2018-Jun-12 21:30N 33°43' W 118°11'916.5
2018-Jun-12 20:59N 33°35' W 118°06'4 8.8
2018-Jun-12 20:30N 33°32' W 118°10'3 6.7
2018-Jun-12 20:00N 33°35' W 118°13'917.6
2018-Jun-12 19:31N 33°44' W 118°11'2 4.3
2018-Jun-12 19:00N 33°46' W 118°12'  

Dump ship's entire track history